Location: Campillo
(40.8621°N, 4.2488°W)
Time: 11:52:28
(UTC+00:00)

Meteor 1-27 Rocket - Pass Details

Date: 11 May 2021
Orbit: 830 x 910 km, 81.3° (Epoch: 13 June)

Event Time Altitude Azimuth Distance (km) Brightness Sun altitude
Exits shadow 21:58:51 52° 139° (SE) 1,094 3.8 -23.3°
Maximum altitude 21:59:54 61° 95° (E) 1,007 3.8 -23.4°
Drops below altitude 10° 22:05:43 10° 16° (NNE) 2,592 6.7 -24.0°
Sets 22:08:14 0° 14° (NNE) 3,543 7.6 -24.3°
